FW8896 Weather Reports


time (UTC)temp
C
wind
direction
speed
KPH
gust
KPH
rain 1hr
cm
rain 24hr
cm
rain mn
cm
humidity
%
barometer
mb
20260504234629 21 300 1.6 3.2 0.00 0.00 0.00 50 1012.9
20260504234128 22 356 0.0 3.2 0.00 0.00 0.00 51 1012.9
20260504233630 22 312 0.0 1.6 0.00 0.00 0.00 51 1012.9
20260504233131 22 288 0.0 3.2 0.00 0.00 0.00 52 1012.9
20260504232630 22 30 0.0 3.2 0.00 0.00 0.00 49 1012.9
20260504232131 22 22 0.0 3.2 0.00 0.00 0.00 50 1012.9
20260504231630 22 0 0.0 3.2 0.00 0.00 0.00 50 1012.9
20260504231128 23 0 0.0 3.2 0.00 0.00 0.00 51 1012.8
20260504230629 23 0 0.0 3.2 0.00 0.00 0.00 49 1012.8
20260504230129 23 0 0.0 3.2 0.00 0.00 0.00 49 1012.9
20260504225629 23 307 0.0 3.2 0.00 0.00 0.00 49 1012.9
20260504225128 23 0 0.0 3.2 0.00 0.00 0.00 47 1013.0
20260504224629 23 0 0.0 3.2 0.00 0.00 0.00 48 1013.0
20260504224130 23 0 0.0 3.2 0.00 0.00 0.00 49 1013.0
20260504223629 23 0 0.0 3.2 0.00 0.00 0.00 47 1013.0
20260504223412 23 0 0.0 6.4 0.00 0.00 0.00 47 1013.0
20260504222629 23 0 0.0 6.4 0.00 0.00 0.00 46 1013.1
20260504222129 23 0 0.0 3.2 0.00 0.00 0.00 48 1013.1
20260504221631 23 0 0.0 3.2 0.00 0.00 0.00 46 1013.0
20260504221149 24 0 0.0 3.2 0.00 0.00 0.00 49 1013.0
20260504220129 24 70 0.0 3.2 0.00 0.00 0.00 48 1013.0
20260504215910 24 0 0.0 3.2 0.00 0.00 0.00 47 1013.0
20260504215129 25 92 0.0 3.2 0.00 0.00 0.00 49 1013.1
20260504214912 24 308 0.0 4.8 0.00 0.00 0.00 52 1013.0
20260504214128 24 313 0.0 4.8 0.00 0.00 0.00 51 1013.0
20260504213630 24 0 0.0 3.2 0.00 0.00 0.00 52 1013.0
20260504213129 24 0 0.0 6.4 0.00 0.00 0.00 50 1013.0
20260504212629 24 0 0.0 6.4 0.00 0.00 0.00 50 1012.9
20260504212130 24 252 0.0 6.4 0.00 0.00 0.00 48 1012.9
20260504211628 24 0 0.0 3.2 0.00 0.00 0.00 49 1012.9
20260504211414 25 0 0.0 6.4 0.00 0.00 0.00 48 1013.0
20260504210630 25 102 0.0 6.4 0.00 0.00 0.00 50 1013.0
20260504210130 25 297 0.0 6.4 0.00 0.00 0.00 48 1013.0
20260504205913 25 0 0.0 4.8 0.00 0.00 0.00 50 1013.0
20260504205130 25 0 1.6 4.8 0.00 0.00 0.00 50 1012.9
20260504204630 26 61 0.0 3.2 0.00 0.00 0.00 48 1013.0
20260504204130 26 0 0.0 3.2 0.00 0.00 0.00 45 1013.0
20260504203631 26 0 0.0 3.2 0.00 0.00 0.00 45 1013.1
20260504203129 26 353 0.0 4.8 0.00 0.00 0.00 44 1013.2
20260504202628 26 0 0.0 4.8 0.00 0.00 0.00 44 1013.3
20260504202129 26 0 1.6 4.8 0.00 0.00 0.00 42 1013.2
20260504201628 25 256 1.6 4.8 0.00 0.00 0.00 43 1013.3
20260504201411 25 0 0.0 4.8 0.00 0.00 0.00 43 1013.3
20260504200912 26 0 0.0 4.8 0.00 0.00 0.00 43 1013.4
20260504200128 26 0 0.0 4.8 0.00 0.00 0.00 46 1013.4
20260504195629 26 0 1.6 4.8 0.00 0.00 0.00 43 1013.5
20260504195129 26 278 0.0 4.8 0.00 0.00 0.00 48 1013.8
20260504194629 26 0 0.0 4.8 0.00 0.00 0.00 46 1013.8
20260504194129 26 0 0.0 3.2 0.00 0.00 0.00 45 1013.8
20260504193629 26 0 0.0 3.2 0.00 0.00 0.00 49 1013.9
20260504193129 26 0 0.0 3.2 0.00 0.00 0.00 46 1013.9
20260504192626 26 58 0.0 3.2 0.00 0.00 0.00 45 1014.0
20260504192127 25 0 0.0 3.2 0.00 0.00 0.00 45 1014.1
20260504191625 25 0 0.0 3.2 0.00 0.00 0.00 45 1014.1
20260504191123 25 0 0.0 3.2 0.00 0.00 0.00 45 1014.3
20260504190624 25 0 1.6 6.4 0.00 0.00 0.00 45 1014.4
20260504190124 25 350 1.6 6.4 0.00 0.00 0.00 42 1014.4
20260504185624 25 0 1.6 6.4 0.00 0.00 0.00 43 1014.5
20260504185407 25 331 1.6 6.4 0.00 0.00 0.00 44 1014.6
20260504184624 25 0 1.6 4.8 0.00 0.00 0.00 47 1014.6
20260504184122 25 55 1.6 4.8 0.00 0.00 0.00 48 1014.7
20260504183620 25 353 0.0 4.8 0.00 0.00 0.00 49 1014.8
20260504183142 25 0 0.0 3.2 0.00 0.00 0.00 49 1014.8
20260504182120 24 0 1.6 6.4 0.00 0.00 0.00 47 1014.9
20260504181903 24 342 1.6 6.4 0.00 0.00 0.00 46 1014.9
20260504181120 25 339 0.0 6.4 0.00 0.00 0.00 48 1014.9
20260504180619 25 200 0.0 6.4 0.00 0.00 0.00 51 1015.1
20260504180119 25 0 1.6 6.4 0.00 0.00 0.00 47 1015.2
20260504175618 25 0 0.0 4.8 0.00 0.00 0.00 50 1015.3
20260504175119 25 0 0.0 4.8 0.00 0.00 0.00 48 1015.3
20260504174619 24 0 0.0 3.2 0.00 0.00 0.00 50 1015.3
20260504174118 24 0 0.0 3.2 0.00 0.00 0.00 51 1015.4
20260504173617 23 351 0.0 6.4 0.00 0.00 0.00 50 1015.4
20260504173115 23 0 0.0 9.7 0.00 0.00 0.00 51 1015.5
20260504172859 22 14 0.0 9.7 0.00 0.00 0.00 53 1015.6
20260504172114 22 0 0.0 4.8 0.00 0.00 0.00 54 1015.6
20260504171613 22 359 0.0 4.8 0.00 0.00 0.00 54 1015.6
20260504171112 22 0 0.0 3.2 0.00 0.00 0.00 55 1015.6
20260504170611 22 0 0.0 3.2 0.00 0.00 0.00 53 1015.7
20260504170110 22 0 1.6 4.8 0.00 0.00 0.00 53 1015.9
20260504160352 22 284 0.0 6.4 0.00 0.00 0.00 53 1016.5
20260504151105 20 252 3.2 11.3 0.00 0.00 0.00 55 1016.7
20260504150602 19 3 4.8 11.3 0.00 0.00 0.00 55 1016.7
20260504141102 15 34 1.6 8.0 0.00 0.00 0.00 67 1017.1
20260504140602 15 16 3.2 6.4 0.00 0.00 0.00 70 1017.1
20260504140345 13 37 3.2 12.9 0.00 0.00 0.00 74 1017.1
20260504130601 8 50 3.2 6.4 0.00 0.00 0.00 100 1016.9
20260504110601 4 224 1.6 3.2 0.00 0.00 0.00 99 1016.6
20260504100602 4 78 1.6 3.2 0.00 0.00 0.00 99 1016.4
20260504090132 5 21 1.6 3.2 0.00 0.00 0.00 99 1016.4
20260504090123 5 198 1.6 3.2 0.00 0.00 0.00 99 1016.4
20260504081601 5 20 1.6 3.2 0.00 0.00 0.00 99 1016.2
20260504081103 5 179 1.6 3.2 0.00 0.00 0.00 99 1016.2
20260504080602 5 23 1.6 3.2 0.00 0.00 0.00 99 1016.3
20260504050549 7 48 1.6 3.2 0.00 0.00 0.00 97 1017.2
20260504045549 7 54 1.6 3.2 0.00 0.00 0.00 97 1017.2
20260504045049 7 34 1.6 3.2 0.00 0.00 0.00 97 1017.3
20260504044548 7 27 1.6 3.2 0.00 0.00 0.00 97 1017.2
20260504044049 7 25 1.6 3.2 0.00 0.00 0.00 97 1017.3
20260504043549 7 21 1.6 3.2 0.00 0.00 0.00 97 1017.2
20260504043333 7 29 1.6 3.2 0.00 0.00 0.00 97 1017.3
20260504042834 7 47 1.6 3.2 0.00 0.00 0.00 96 1017.3
20260504042049 7 0 1.6 3.2 0.00 0.00 0.00 96 1017.5
20260504041547 7 36 3.2 3.2 0.00 0.00 0.00 96 1017.5
20260504041049 7 17 1.6 3.2 0.00 0.00 0.00 96 1017.5
20260504040548 7 23 1.6 3.2 0.00 0.00 0.00 95 1017.5
20260504040048 7 40 1.6 3.2 0.00 0.00 0.00 95 1017.5
20260504035548 8 21 1.6 3.2 0.00 0.00 0.00 95 1017.5
20260504035047 8 20 1.6 3.2 0.00 0.00 0.00 94 1017.6
20260504034832 8 29 1.6 3.2 0.00 0.00 0.00 94 1017.6
20260504034048 8 38 1.6 3.2 0.00 0.00 0.00 94 1017.5
20260504033547 8 26 1.6 3.2 0.00 0.00 0.00 94 1017.5
20260504033330 8 221 1.6 3.2 0.00 0.00 0.00 94 1017.5
20260504032548 8 22 1.6 3.2 0.00 0.00 0.00 94 1017.5
20260504032045 8 4 1.6 3.2 0.00 0.00 0.00 94 1017.5
20260504031545 8 7 1.6 3.2 0.00 0.00 0.00 93 1017.3
20260504031045 8 11 1.6 3.2 0.00 0.00 0.00 93 1017.2
20260504030544 8 12 1.6 3.2 0.00 0.00 0.00 92 1017.3
20260504030325 8 16 1.6 3.2 0.00 0.00 0.00 92 1017.3
20260504025825 8 6 1.6 3.2 0.00 0.00 0.00 92 1017.2
20260504025042 8 0 1.6 3.2 0.00 0.00 0.00 91 1017.2
20260504024542 9 12 1.6 3.2 0.00 0.00 0.00 90 1017.3
20260504024042 9 11 1.6 3.2 0.00 0.00 0.00 90 1017.2
20260504023542 9 38 1.6 3.2 0.00 0.00 0.00 90 1017.2
20260504023040 9 12 1.6 3.2 0.00 0.00 0.00 89 1017.1
20260504022541 9 54 1.6 3.2 0.00 0.00 0.00 89 1017.0
20260504022040 9 46 3.2 3.2 0.00 0.00 0.00 88 1017.0
20260504021825 10 13 1.6 3.2 0.00 0.00 0.00 87 1017.0
20260504021041 10 14 1.6 3.2 0.00 0.00 0.00 87 1016.9
20260504020541 10 26 3.2 4.8 0.00 0.00 0.00 87 1016.8
20260504020040 10 31 3.2 4.8 0.00 0.00 0.00 86 1016.7
20260504015541 10 40 3.2 6.4 0.00 0.00 0.00 85 1016.7
20260504015041 10 40 3.2 6.4 0.00 0.00 0.00 84 1016.6
20260504014541 11 41 3.2 6.4 0.00 0.00 0.00 84 1016.5
20260504014329 11 30 1.6 6.4 0.00 0.00 0.00 83 1016.5
20260504013541 11 84 1.6 4.8 0.00 0.00 0.00 82 1016.6
20260504013040 11 0 1.6 4.8 0.00 0.00 0.00 81 1016.5
20260504012541 11 41 1.6 4.8 0.00 0.00 0.00 80 1016.4
20260504012037 12 29 1.6 3.2 0.00 0.00 0.00 79 1016.3
20260504011537 12 24 3.2 3.2 0.00 0.00 0.00 78 1016.3
20260504011037 12 25 3.2 4.8 0.00 0.00 0.00 77 1016.2
20260504010822 12 25 3.2 4.8 0.00 0.00 0.00 76 1016.2
20260504010321 13 22 3.2 4.8 0.00 0.00 0.00 75 1016.2
20260504005538 13 24 1.6 3.2 0.00 0.00 0.00 74 1016.2
20260504005038 13 15 1.6 3.2 0.00 0.00 0.00 72 1016.1
20260504004538 13 47 1.6 3.2 0.00 0.00 0.00 71 1016.1
20260504004037 14 3 1.6 3.2 0.00 0.00 0.00 70 1016.1
20260504003822 14 14 1.6 4.8 0.00 0.00 0.00 69 1016.0
20260504003039 15 353 3.2 4.8 0.00 0.00 0.00 66 1015.9
20260504002538 15 1 3.2 4.8 0.00 0.00 0.00 64 1015.9
20260504002035 15 27 3.2 4.8 0.00 0.00 0.00 63 1015.9
20260504001820 16 33 3.2 4.8 0.00 0.00 0.00 61 1016.0
20260504001319 16 30 1.6 4.8 0.00 0.00 0.00 60 1016.0
20260504000849 17 32 0.0 3.2 0.00 0.00 0.00 57 1015.9
20260504000843 16 308 0.0 4.8 0.00 0.00 0.00 58 1015.9
20260503235534 17 0 0.0 3.2 0.00 0.00 0.00 56 1015.9